星链-30236 (STARLINK-30236 )

导读

STARLINK-30236是美国太空探索技术公司(SpaceX)星链互联网卫星星座中的一颗卫星,于2023年7月10日发射入轨。星链项目旨在为全球提供高速低延迟互联网覆盖,该卫星加入星座后,进一步扩充了星链卫星网络规模,助力服务全球更多地区用户,推动太空互联网基础设施建设。

基本信息
目录编号:
57300
目录名称:
STARLINK-30236
国际标识:
2023-096L
轨道中心:
EARTH
卫星名称:
星链-30236
卫星全名:
星链-30236 (STARLINK-30236 )
卫星状态:
在轨 (已飞行1159 天)
发射日期:
2023-07-10 UTC
国别 :
美国 (US)
星等 :
--
该卫星已列入 空间交会检测服务 Space Conjunction Data Service (SCDS) ,当前飞行风险评估等级: 无高风险
轨道信息
数据来源 国际轨道数据
星历时间: 2026-09-11T16:00:04+0800
7小时前
查看轨道信息
半长轴: 6764.324km
偏心率: 0.0001938
轨道倾角: 42.999°
近地点辐角 276.514°
升交点赤经 248.962°
平近点角 160.044°
近地点: 384.876km
远地点: 387.498km
周期: 92.278分钟
每日圈数: 15.605089
详细信息
固有亮度:
5
最大亮度:
0.3
卫星平台:
Starlink v2.0 mini
覆盖范围:
全球
运营商:
太空探索技术公司
运营商所在国:
美国
制造商(研发单位):
太空探索技术公司
制造商所在国:
美国
使用方式:
暂无
卫星简介
星链(Starlink)计划是由太空探索技术公司(SpaceX)提出的一个巨型低轨卫星互联网星座项目,计划在2019年至2024年间在太空搭建由约1.2万颗卫星组成的“星链”网络,其中1584颗将部署在地球上空550千米处的近地轨道,并从2020年开始工作。该卫星仍在工作。
2D轨道图
3D轨道图
轨道高度分析图
轨道倾角分析图
轨道综合分析图
查看轨道综合分析图
与全量物体交会距离演化趋势
与全量物体交会风险概率演化趋势